Terminal Aerodrome Forecast
Issued by NWS

Home | Current Version | Previous Version | Text Only | Print | Product List | Glossary On
Versions: 1 2 3 4 5 6 7 8 9 10 11 12 13 14 15 16 17 18
000
FTUS44 KMAF 031509 AAA
TAFPEQ
TAF AMD
KPEQ 031509Z 0315/0412 31010KT 5SM -RA OVC006
      TEMPO 0315/0317 2SM -RA BR BKN004
     FM032300 04009KT 4SM -RA BKN005
     FM040700 06009KT 2SM -DZ OVC003=

USA.gov is the U.S. government's official web portal to all federal, state and local government web resources and services.